| time (UTC) | temp C | wind direction | speed KPH | gust KPH | rain 1hr cm | rain 24hr cm | rain mn cm | humidity % | barometer mb |
| 20260904220045 | 26 | 89 | 4.8 | 9.7 | 0.00 | 0.00 | 0.00 | 45 | 1017.2 |
| 20260904215543 | 26 | 73 | 4.8 | 12.9 | 0.00 | 0.00 | 0.00 | 45 | 1017.2 |
| 20260904215040 | 26 | 85 | 6.4 | 12.9 | 0.00 | 0.00 | 0.00 | 45 | 1017.1 |
| 20260904214540 | 26 | 90 | 3.2 | 12.9 | 0.00 | 0.00 | 0.00 | 44 | 1017.3 |
| 20260904214039 | 26 | 72 | 3.2 | 14.5 | 0.00 | 0.00 | 0.00 | 44 | 1017.2 |
| 20260904213539 | 26 | 112 | 3.2 | 14.5 | 0.00 | 0.00 | 0.00 | 44 | 1017.2 |
| 20260904213042 | 26 | 53 | 4.8 | 11.3 | 0.00 | 0.00 | 0.00 | 44 | 1017.3 |
| 20260904212540 | 26 | 75 | 1.6 | 6.4 | 0.00 | 0.00 | 0.00 | 45 | 1017.2 |
| 20260904212038 | 26 | 88 | 0.0 | 9.7 | 0.00 | 0.00 | 0.00 | 45 | 1017.3 |
| 20260904211535 | 26 | 88 | 4.8 | 11.3 | 0.00 | 0.00 | 0.00 | 45 | 1017.2 |
| 20260904211035 | 26 | 97 | 0.0 | 4.8 | 0.00 | 0.00 | 0.00 | 46 | 1017.3 |
| 20260904210537 | 26 | 92 | 1.6 | 6.4 | 0.00 | 0.00 | 0.00 | 45 | 1017.2 |
| 20260904210034 | 25 | 98 | 0.0 | 6.4 | 0.00 | 0.00 | 0.00 | 46 | 1017.3 |
| 20260904205534 | 25 | 71 | 0.0 | 6.4 | 0.00 | 0.00 | 0.00 | 46 | 1017.2 |
| 20260904205033 | 26 | 84 | 1.6 | 6.4 | 0.00 | 0.00 | 0.00 | 45 | 1017.3 |
| 20260904204535 | 26 | 101 | 0.0 | 4.8 | 0.00 | 0.00 | 0.00 | 45 | 1017.3 |
| 20260904204034 | 26 | 78 | 1.6 | 4.8 | 0.00 | 0.00 | 0.00 | 46 | 1017.3 |
| 20260904203532 | 25 | 74 | 0.0 | 1.6 | 0.00 | 0.00 | 0.00 | 48 | 1017.4 |
| 20260904203032 | 25 | 73 | 0.0 | 3.2 | 0.00 | 0.00 | 0.00 | 48 | 1017.4 |
| 20260904202532 | 25 | 73 | 0.0 | 3.2 | 0.00 | 0.00 | 0.00 | 48 | 1017.4 |
| 20260904202031 | 26 | 75 | 0.0 | 8.0 | 0.00 | 0.00 | 0.00 | 48 | 1017.4 |
| 20260904201531 | 26 | 76 | 1.6 | 8.0 | 0.00 | 0.00 | 0.00 | 46 | 1017.5 |
| 20260904201033 | 26 | 63 | 0.0 | 4.8 | 0.00 | 0.00 | 0.00 | 46 | 1017.5 |
| 20260904200535 | 26 | 39 | 0.0 | 4.8 | 0.00 | 0.00 | 0.00 | 47 | 1017.4 |
| 20260904200042 | 26 | 34 | 1.6 | 6.4 | 0.00 | 0.00 | 0.00 | 47 | 1017.4 |
| 20260904195532 | 26 | 15 | 3.2 | 8.0 | 0.00 | 0.00 | 0.00 | 47 | 1017.5 |
| 20260904195030 | 26 | 95 | 3.2 | 8.0 | 0.00 | 0.00 | 0.00 | 46 | 1017.5 |
| 20260904194534 | 26 | 84 | 0.0 | 9.7 | 0.00 | 0.00 | 0.00 | 46 | 1017.5 |
| 20260904194030 | 26 | 107 | 3.2 | 12.9 | 0.00 | 0.00 | 0.00 | 47 | 1017.5 |
| 20260904193530 | 26 | 85 | 4.8 | 12.9 | 0.00 | 0.00 | 0.00 | 47 | 1017.5 |
| 20260904193036 | 26 | 87 | 6.4 | 12.9 | 0.00 | 0.00 | 0.00 | 47 | 1017.5 |
| 20260904192529 | 26 | 117 | 3.2 | 6.4 | 0.00 | 0.00 | 0.00 | 46 | 1017.6 |
| 20260904192029 | 26 | 83 | 0.0 | 16.1 | 0.00 | 0.00 | 0.00 | 45 | 1017.6 |
| 20260904191537 | 26 | 86 | 8.0 | 16.1 | 0.00 | 0.00 | 0.00 | 45 | 1017.6 |
| 20260904191029 | 26 | 87 | 3.2 | 8.0 | 0.00 | 0.00 | 0.00 | 44 | 1017.6 |
| 20260904190529 | 26 | 84 | 0.0 | 8.0 | 0.00 | 0.00 | 0.00 | 44 | 1017.6 |
| 20260904190027 | 27 | 90 | 0.0 | 9.7 | 0.00 | 0.00 | 0.00 | 45 | 1017.5 |
| 20260904185528 | 27 | 93 | 3.2 | 9.7 | 0.00 | 0.00 | 0.00 | 45 | 1017.4 |
| 20260904185026 | 27 | 42 | 0.0 | 4.8 | 0.00 | 0.00 | 0.00 | 45 | 1017.3 |
| 20260904184525 | 27 | 25 | 0.0 | 6.4 | 0.00 | 0.00 | 0.00 | 45 | 1017.2 |
| 20260904184025 | 27 | 82 | 3.2 | 6.4 | 0.00 | 0.00 | 0.00 | 45 | 1017.2 |
| 20260904183525 | 27 | 115 | 1.6 | 6.4 | 0.00 | 0.00 | 0.00 | 46 | 1017.2 |
| 20260904183023 | 27 | 113 | 3.2 | 6.4 | 0.00 | 0.00 | 0.00 | 46 | 1017.1 |
| 20260904182523 | 27 | 88 | 1.6 | 9.7 | 0.00 | 0.00 | 0.00 | 45 | 1017.1 |
| 20260904182023 | 27 | 99 | 6.4 | 14.5 | 0.00 | 0.00 | 0.00 | 45 | 1017.0 |
| 20260904181532 | 27 | 69 | 4.8 | 14.5 | 0.00 | 0.00 | 0.00 | 45 | 1017.1 |
| 20260904181022 | 27 | 67 | 4.8 | 12.9 | 0.00 | 0.00 | 0.00 | 46 | 1017.0 |
| 20260904180522 | 27 | 92 | 6.4 | 16.1 | 0.00 | 0.00 | 0.00 | 45 | 1017.0 |
| 20260904180022 | 27 | 61 | 8.0 | 16.1 | 0.00 | 0.00 | 0.00 | 45 | 1017.0 |
| 20260904175521 | 27 | 111 | 6.4 | 14.5 | 0.00 | 0.00 | 0.00 | 45 | 1016.9 |
| 20260904175021 | 27 | 124 | 8.0 | 14.5 | 0.00 | 0.00 | 0.00 | 45 | 1016.8 |
| 20260904174520 | 27 | 114 | 6.4 | 14.5 | 0.00 | 0.00 | 0.00 | 45 | 1016.8 |
| 20260904174020 | 27 | 72 | 8.0 | 14.5 | 0.00 | 0.00 | 0.00 | 44 | 1016.7 |
| 20260904173517 | 27 | 88 | 6.4 | 14.5 | 0.00 | 0.00 | 0.00 | 44 | 1016.6 |
| 20260904173019 | 27 | 63 | 6.4 | 16.1 | 0.00 | 0.00 | 0.00 | 44 | 1016.4 |
| 20260904172516 | 27 | 360 | 3.2 | 16.1 | 0.00 | 0.00 | 0.00 | 44 | 1016.3 |
| 20260904172016 | 28 | 82 | 6.4 | 19.3 | 0.00 | 0.00 | 0.00 | 44 | 1016.4 |
| 20260904171518 | 28 | 98 | 4.8 | 19.3 | 0.00 | 0.00 | 0.00 | 45 | 1016.3 |
| 20260904171016 | 28 | 55 | 11.3 | 19.3 | 0.00 | 0.00 | 0.00 | 44 | 1016.3 |
| 20260904170514 | 28 | 40 | 12.9 | 19.3 | 0.00 | 0.00 | 0.00 | 43 | 1016.2 |
| 20260904170015 | 28 | 68 | 12.9 | 19.3 | 0.00 | 0.00 | 0.00 | 41 | 1016.1 |
| 20260904165516 | 28 | 82 | 8.0 | 19.3 | 0.00 | 0.00 | 0.00 | 39 | 1016.0 |
| 20260904165015 | 28 | 44 | 9.7 | 22.5 | 0.00 | 0.00 | 0.00 | 38 | 1015.9 |
| 20260904164514 | 28 | 13 | 16.1 | 22.5 | 0.00 | 0.00 | 0.00 | 38 | 1016.0 |
| 20260904164017 | 29 | 59 | 12.9 | 27.4 | 0.00 | 0.00 | 0.00 | 39 | 1016.0 |
| 20260904163513 | 29 | 5 | 16.1 | 27.4 | 0.00 | 0.00 | 0.00 | 39 | 1016.0 |
| 20260904163014 | 29 | 59 | 11.3 | 25.7 | 0.00 | 0.00 | 0.00 | 39 | 1016.0 |
| 20260904162514 | 29 | 44 | 12.9 | 24.1 | 0.00 | 0.00 | 0.00 | 39 | 1016.0 |
| 20260904162014 | 29 | 24 | 14.5 | 27.4 | 0.00 | 0.00 | 0.00 | 39 | 1015.9 |
| 20260904161513 | 29 | 5 | 17.7 | 29.0 | 0.00 | 0.00 | 0.00 | 39 | 1015.9 |
| 20260904161016 | 30 | 349 | 16.1 | 38.6 | 0.00 | 0.00 | 0.00 | 39 | 1015.9 |
| 20260904160514 | 30 | 28 | 24.1 | 38.6 | 0.00 | 0.00 | 0.00 | 39 | 1015.9 |
| 20260904160013 | 30 | 5 | 17.7 | 40.2 | 0.00 | 0.00 | 0.00 | 39 | 1015.8 |
| 20260904155512 | 30 | 355 | 22.5 | 40.2 | 0.00 | 0.00 | 0.00 | 39 | 1015.7 |
| 20260904155012 | 30 | 5 | 20.9 | 37.0 | 0.00 | 0.00 | 0.00 | 38 | 1015.6 |
| 20260904154512 | 30 | 29 | 22.5 | 37.0 | 0.00 | 0.00 | 0.00 | 38 | 1015.6 |
| 20260904154015 | 30 | 55 | 19.3 | 33.8 | 0.00 | 0.00 | 0.00 | 39 | 1015.6 |
| 20260904153511 | 30 | 355 | 19.3 | 35.4 | 0.00 | 0.00 | 0.00 | 39 | 1015.6 |
| 20260904153018 | 30 | 19 | 24.1 | 35.4 | 0.00 | 0.00 | 0.00 | 40 | 1015.5 |
| 20260904152510 | 30 | 17 | 16.1 | 30.6 | 0.00 | 0.00 | 0.00 | 39 | 1015.6 |
| 20260904152010 | 30 | 14 | 14.5 | 33.8 | 0.00 | 0.00 | 0.00 | 38 | 1015.4 |
| 20260904151510 | 30 | 348 | 25.7 | 33.8 | 0.00 | 0.00 | 0.00 | 39 | 1015.4 |
| 20260904151013 | 30 | 19 | 14.5 | 33.8 | 0.00 | 0.00 | 0.00 | 40 | 1015.5 |
| 20260904150508 | 30 | 28 | 12.9 | 33.8 | 0.00 | 0.00 | 0.00 | 40 | 1015.4 |
| 20260904150008 | 30 | 355 | 17.7 | 38.6 | 0.00 | 0.00 | 0.00 | 40 | 1015.4 |
| 20260904145508 | 30 | 39 | 24.1 | 40.2 | 0.00 | 0.00 | 0.00 | 40 | 1015.4 |
| 20260904145008 | 30 | 17 | 25.7 | 40.2 | 0.00 | 0.00 | 0.00 | 40 | 1015.4 |
| 20260904144507 | 30 | 30 | 24.1 | 43.5 | 0.00 | 0.00 | 0.00 | 39 | 1015.4 |
| 20260904144009 | 30 | 9 | 17.7 | 43.5 | 0.00 | 0.00 | 0.00 | 39 | 1015.5 |
| 20260904143505 | 31 | 355 | 24.1 | 38.6 | 0.00 | 0.00 | 0.00 | 38 | 1015.3 |
| 20260904143014 | 31 | 66 | 24.1 | 32.2 | 0.00 | 0.00 | 0.00 | 38 | 1015.5 |
| 20260904142508 | 31 | 54 | 12.9 | 37.0 | 0.00 | 0.00 | 0.00 | 38 | 1015.3 |
| 20260904142005 | 31 | 32 | 22.5 | 37.0 | 0.00 | 0.00 | 0.00 | 39 | 1015.3 |
| 20260904141511 | 31 | 350 | 14.5 | 30.6 | 0.00 | 0.00 | 0.00 | 39 | 1015.2 |
| 20260904141003 | 31 | 5 | 17.7 | 37.0 | 0.00 | 0.00 | 0.00 | 39 | 1015.2 |
| 20260904140503 | 31 | 38 | 14.5 | 33.8 | 0.00 | 0.00 | 0.00 | 39 | 1015.3 |
| 20260904140002 | 31 | 31 | 17.7 | 33.8 | 0.00 | 0.00 | 0.00 | 39 | 1015.1 |
| 20260904135502 | 31 | 61 | 24.1 | 37.0 | 0.00 | 0.00 | 0.00 | 40 | 1015.3 |
| 20260904135001 | 31 | 5 | 24.1 | 37.0 | 0.00 | 0.00 | 0.00 | 41 | 1015.2 |
| 20260904134501 | 31 | 22 | 25.7 | 37.0 | 0.00 | 0.00 | 0.00 | 40 | 1015.3 |
| 20260904134100 | 31 | 360 | 19.3 | 38.6 | 0.00 | 0.00 | 0.00 | 39 | 1015.4 |
| 20260904133600 | 30 | 22 | 27.4 | 41.8 | 0.00 | 0.00 | 0.00 | 40 | 1015.4 |
| 20260904133059 | 31 | 355 | 20.9 | 37.0 | 0.00 | 0.00 | 0.00 | 41 | 1015.4 |
| 20260904132559 | 31 | 67 | 24.1 | 37.0 | 0.00 | 0.00 | 0.00 | 42 | 1015.5 |
| 20260904132058 | 31 | 19 | 22.5 | 41.8 | 0.00 | 0.00 | 0.00 | 42 | 1015.3 |
| 20260904131608 | 31 | 5 | 20.9 | 41.8 | 0.00 | 0.00 | 0.00 | 41 | 1015.3 |
| 20260904131100 | 31 | 18 | 19.3 | 35.4 | 0.00 | 0.00 | 0.00 | 42 | 1015.2 |
| 20260904130556 | 31 | 20 | 20.9 | 35.4 | 0.00 | 0.00 | 0.00 | 41 | 1015.3 |
| 20260904130056 | 31 | 80 | 17.7 | 37.0 | 0.00 | 0.00 | 0.00 | 41 | 1015.3 |
| 20260904125556 | 31 | 23 | 24.1 | 37.0 | 0.00 | 0.00 | 0.00 | 41 | 1015.4 |
| 20260904125056 | 31 | 41 | 19.3 | 33.8 | 0.00 | 0.00 | 0.00 | 40 | 1015.3 |
| 20260904124554 | 31 | 72 | 19.3 | 37.0 | 0.00 | 0.00 | 0.00 | 40 | 1015.1 |
| 20260904124053 | 31 | 23 | 16.1 | 37.0 | 0.00 | 0.00 | 0.00 | 41 | 1015.1 |
| 20260904123552 | 31 | 98 | 19.3 | 37.0 | 0.00 | 0.00 | 0.00 | 40 | 1015.2 |
| 20260904123052 | 31 | 81 | 17.7 | 46.7 | 0.00 | 0.00 | 0.00 | 42 | 1015.3 |
| 20260904122552 | 31 | 57 | 16.1 | 49.9 | 0.00 | 0.00 | 0.00 | 41 | 1015.4 |
| 20260904122051 | 31 | 71 | 25.7 | 40.2 | 0.00 | 0.00 | 0.00 | 40 | 1015.3 |
| 20260904121551 | 31 | 53 | 24.1 | 37.0 | 0.00 | 0.00 | 0.00 | 40 | 1015.3 |
| 20260904121050 | 31 | 47 | 19.3 | 37.0 | 0.00 | 0.00 | 0.00 | 40 | 1015.4 |
| 20260904120549 | 31 | 81 | 19.3 | 45.1 | 0.00 | 0.00 | 0.00 | 40 | 1015.5 |
| 20260904120049 | 31 | 15 | 9.7 | 45.1 | 0.00 | 0.00 | 0.00 | 40 | 1015.5 |
| 20260904115549 | 31 | 84 | 20.9 | 43.5 | 0.00 | 0.00 | 0.00 | 39 | 1015.4 |
| 20260904115048 | 31 | 5 | 11.3 | 33.8 | 0.00 | 0.00 | 0.00 | 39 | 1015.4 |
| 20260904114548 | 31 | 12 | 20.9 | 33.8 | 0.00 | 0.00 | 0.00 | 38 | 1015.6 |
| 20260904114047 | 32 | 360 | 17.7 | 33.8 | 0.00 | 0.00 | 0.00 | 37 | 1015.5 |
| 20260904113546 | 31 | 19 | 12.9 | 32.2 | 0.00 | 0.00 | 0.00 | 39 | 1015.4 |
| 20260904113046 | 31 | 45 | 17.7 | 32.2 | 0.00 | 0.00 | 0.00 | 39 | 1015.4 |
| 20260904112547 | 31 | 48 | 9.7 | 33.8 | 0.00 | 0.00 | 0.00 | 40 | 1015.5 |
| 20260904112044 | 31 | 67 | 22.5 | 40.2 | 0.00 | 0.00 | 0.00 | 40 | 1015.6 |
| 20260904111543 | 31 | 20 | 27.4 | 40.2 | 0.00 | 0.00 | 0.00 | 40 | 1015.7 |
| 20260904111043 | 31 | 5 | 22.5 | 37.0 | 0.00 | 0.00 | 0.00 | 40 | 1015.6 |
| 20260904110544 | 31 | 61 | 11.3 | 41.8 | 0.00 | 0.00 | 0.00 | 40 | 1015.7 |
| 20260904110043 | 30 | 67 | 19.3 | 41.8 | 0.00 | 0.00 | 0.00 | 41 | 1015.9 |
| 20260904105543 | 30 | 360 | 24.1 | 38.6 | 0.00 | 0.00 | 0.00 | 40 | 1015.9 |
| 20260904105041 | 30 | 19 | 22.5 | 37.0 | 0.00 | 0.00 | 0.00 | 40 | 1016.0 |
| 20260904104540 | 30 | 73 | 24.1 | 43.5 | 0.00 | 0.00 | 0.00 | 42 | 1016.1 |
| 20260904104040 | 30 | 26 | 27.4 | 43.5 | 0.00 | 0.00 | 0.00 | 41 | 1016.0 |
| 20260904103540 | 31 | 31 | 17.7 | 37.0 | 0.00 | 0.00 | 0.00 | 41 | 1015.9 |
| 20260904103052 | 30 | 40 | 17.7 | 41.8 | 0.00 | 0.00 | 0.00 | 43 | 1016.0 |
| 20260904102540 | 30 | 89 | 25.7 | 40.2 | 0.00 | 0.00 | 0.00 | 42 | 1015.8 |
| 20260904102039 | 30 | 82 | 19.3 | 38.6 | 0.00 | 0.00 | 0.00 | 44 | 1015.7 |
| 20260904101548 | 30 | 18 | 20.9 | 45.1 | 0.00 | 0.00 | 0.00 | 45 | 1015.8 |
| 20260904101039 | 30 | 38 | 27.4 | 45.1 | 0.00 | 0.00 | 0.00 | 45 | 1016.0 |
| 20260904100539 | 30 | 59 | 24.1 | 38.6 | 0.00 | 0.00 | 0.00 | 48 | 1016.0 |
| 20260904100038 | 30 | 67 | 20.9 | 40.2 | 0.00 | 0.00 | 0.00 | 45 | 1016.1 |
| 20260904095539 | 30 | 33 | 24.1 | 41.8 | 0.00 | 0.00 | 0.00 | 44 | 1016.1 |
| 20260904095039 | 30 | 16 | 22.5 | 41.8 | 0.00 | 0.00 | 0.00 | 44 | 1016.1 |
| 20260904094549 | 30 | 31 | 22.5 | 45.1 | 0.00 | 0.00 | 0.00 | 45 | 1016.0 |
| 20260904094036 | 30 | 11 | 30.6 | 45.1 | 0.00 | 0.00 | 0.00 | 46 | 1016.0 |
| 20260904093538 | 30 | 17 | 24.1 | 37.0 | 0.00 | 0.00 | 0.00 | 46 | 1016.1 |
| 20260904093035 | 30 | 28 | 24.1 | 37.0 | 0.00 | 0.00 | 0.00 | 47 | 1016.1 |
| 20260904092535 | 30 | 39 | 22.5 | 38.6 | 0.00 | 0.00 | 0.00 | 48 | 1016.0 |
| 20260904092035 | 30 | 11 | 20.9 | 41.8 | 0.00 | 0.00 | 0.00 | 48 | 1015.8 |
| 20260904091535 | 30 | 19 | 20.9 | 43.5 | 0.00 | 0.00 | 0.00 | 48 | 1015.9 |
| 20260904091033 | 30 | 351 | 19.3 | 43.5 | 0.00 | 0.00 | 0.00 | 49 | 1015.9 |
| 20260904090530 | 30 | 355 | 29.0 | 40.2 | 0.00 | 0.00 | 0.00 | 49 | 1015.9 |
| 20260904090033 | 30 | 34 | 19.3 | 33.8 | 0.00 | 0.00 | 0.00 | 48 | 1016.0 |
| 20260904085529 | 30 | 11 | 11.3 | 33.8 | 0.00 | 0.00 | 0.00 | 49 | 1015.9 |
| 20260904085027 | 30 | 42 | 24.1 | 35.4 | 0.00 | 0.00 | 0.00 | 49 | 1016.0 |
| 20260904084530 | 29 | 19 | 19.3 | 40.2 | 0.00 | 0.00 | 0.00 | 50 | 1016.0 |
| 20260904084025 | 29 | 9 | 25.7 | 40.2 | 0.00 | 0.00 | 0.00 | 50 | 1016.0 |
| 20260904083531 | 29 | 5 | 27.4 | 45.1 | 0.00 | 0.00 | 0.00 | 50 | 1016.0 |
| 20260904083036 | 29 | 20 | 27.4 | 45.1 | 0.00 | 0.00 | 0.00 | 50 | 1016.1 |
| 20260904082523 | 29 | 30 | 16.1 | 37.0 | 0.00 | 0.00 | 0.00 | 50 | 1016.0 |
| 20260904082023 | 29 | 34 | 17.7 | 37.0 | 0.00 | 0.00 | 0.00 | 51 | 1015.8 |
| 20260904081522 | 28 | 72 | 19.3 | 43.5 | 0.00 | 0.00 | 0.00 | 51 | 1015.9 |
| 20260904081025 | 29 | 40 | 22.5 | 43.5 | 0.00 | 0.00 | 0.00 | 49 | 1015.9 |
| 20260904080524 | 30 | 17 | 24.1 | 37.0 | 0.00 | 0.00 | 0.00 | 48 | 1015.8 |
| 20260904080024 | 29 | 349 | 11.3 | 29.0 | 0.00 | 0.00 | 0.00 | 50 | 1015.7 |
| 20260904075519 | 29 | 86 | 17.7 | 35.4 | 0.00 | 0.00 | 0.00 | 50 | 1015.8 |
| 20260904075018 | 29 | 79 | 17.7 | 35.4 | 0.00 | 0.00 | 0.00 | 50 | 1015.7 |
| 20260904074516 | 29 | 75 | 17.7 | 30.6 | 0.00 | 0.00 | 0.00 | 51 | 1015.7 |
| 20260904074014 | 29 | 61 | 19.3 | 30.6 | 0.00 | 0.00 | 0.00 | 51 | 1015.6 |
| 20260904073513 | 28 | 26 | 14.5 | 30.6 | 0.00 | 0.00 | 0.00 | 52 | 1015.5 |
| 20260904073012 | 28 | 13 | 17.7 | 29.0 | 0.00 | 0.00 | 0.00 | 51 | 1015.5 |
| 20260904072510 | 28 | 47 | 12.9 | 29.0 | 0.00 | 0.00 | 0.00 | 50 | 1015.5 |
| 20260904072013 | 28 | 46 | 16.1 | 37.0 | 0.00 | 0.00 | 0.00 | 51 | 1015.5 |
| 20260904071510 | 28 | 30 | 14.5 | 37.0 | 0.00 | 0.00 | 0.00 | 50 | 1015.4 |
| 20260904071007 | 28 | 9 | 19.3 | 38.6 | 0.00 | 0.00 | 0.00 | 50 | 1015.5 |
| 20260904070509 | 28 | 24 | 19.3 | 38.6 | 0.00 | 0.00 | 0.00 | 50 | 1015.4 |
| 20260904070004 | 28 | 46 | 12.9 | 35.4 | 0.00 | 0.00 | 0.00 | 49 | 1015.4 |
| 20260904065503 | 28 | 22 | 20.9 | 35.4 | 0.00 | 0.00 | 0.00 | 49 | 1015.3 |
| 20260904065001 | 28 | 55 | 17.7 | 35.4 | 0.00 | 0.00 | 0.00 | 49 | 1015.2 |
| 20260904064604 | 28 | 24 | 20.9 | 37.0 | 0.00 | 0.00 | 0.00 | 48 | 1015.0 |
| 20260904064100 | 28 | 11 | 24.1 | 37.0 | 0.00 | 0.00 | 0.00 | 48 | 1015.0 |
| 20260904063556 | 28 | 13 | 19.3 | 33.8 | 0.00 | 0.00 | 0.00 | 48 | 1014.9 |
| 20260904063105 | 28 | 20 | 19.3 | 33.8 | 0.00 | 0.00 | 0.00 | 49 | 1014.8 |
| 20260904062553 | 28 | 360 | 16.1 | 33.8 | 0.00 | 0.00 | 0.00 | 49 | 1014.8 |
| 20260904062051 | 28 | 82 | 14.5 | 33.8 | 0.00 | 0.00 | 0.00 | 49 | 1014.8 |
| 20260904061550 | 28 | 34 | 14.5 | 29.0 | 0.00 | 0.00 | 0.00 | 49 | 1014.8 |
| 20260904061050 | 28 | 38 | 19.3 | 29.0 | 0.00 | 0.00 | 0.00 | 50 | 1014.8 |
| 20260904060548 | 28 | 355 | 11.3 | 20.9 | 0.00 | 0.00 | 0.00 | 50 | 1014.9 |
| 20260904060100 | 28 | 184 | 1.6 | 17.7 | 0.00 | 0.00 | 0.00 | 49 | 1014.9 |
| 20260904055545 | 28 | 13 | 3.2 | 17.7 | 0.00 | 0.00 | 0.00 | 49 | 1015.0 |
| 20260904055044 | 28 | 11 | 8.0 | 27.4 | 0.00 | 0.00 | 0.00 | 50 | 1015.0 |
| 20260904054555 | 27 | 355 | 9.7 | 27.4 | 0.00 | 0.00 | 0.00 | 51 | 1015.1 |
| 20260904054040 | 27 | 270 | 3.2 | 8.0 | 0.00 | 0.00 | 0.00 | 54 | 1015.0 |
| 20260904053539 | 26 | 273 | 3.2 | 8.0 | 0.00 | 0.00 | 0.00 | 55 | 1015.0 |
| 20260904053044 | 26 | 198 | 3.2 | 6.4 | 0.00 | 0.00 | 0.00 | 56 | 1014.9 |
| 20260904052537 | 26 | 178 | 1.6 | 8.0 | 0.00 | 0.00 | 0.00 | 58 | 1014.9 |
| 20260904052036 | 26 | 196 | 4.8 | 11.3 | 0.00 | 0.00 | 0.00 | 58 | 1014.9 |
| 20260904051536 | 26 | 167 | 4.8 | 12.9 | 0.00 | 0.00 | 0.00 | 57 | 1014.8 |
| 20260904051032 | 26 | 217 | 1.6 | 8.0 | 0.00 | 0.00 | 0.00 | 56 | 1014.6 |
| 20260904050531 | 26 | 179 | 1.6 | 4.8 | 0.00 | 0.00 | 0.00 | 57 | 1014.7 |
| 20260904050037 | 26 | 177 | 0.0 | 3.2 | 0.00 | 0.00 | 0.00 | 58 | 1014.8 |
| 20260904045533 | 25 | 139 | 0.0 | 6.4 | 0.00 | 0.00 | 0.00 | 58 | 1014.9 |
| 20260904045028 | 25 | 139 | 1.6 | 9.7 | 0.00 | 0.00 | 0.00 | 58 | 1014.8 |
| 20260904044527 | 25 | 169 | 4.8 | 11.3 | 0.00 | 0.00 | 0.00 | 59 | 1014.7 |
| 20260904044025 | 25 | 188 | 3.2 | 19.3 | 0.00 | 0.00 | 0.00 | 60 | 1014.8 |
| 20260904043525 | 25 | 188 | 12.9 | 19.3 | 0.00 | 0.00 | 0.00 | 60 | 1014.7 |
| 20260904043037 | 25 | 177 | 3.2 | 11.3 | 0.00 | 0.00 | 0.00 | 60 | 1014.9 |
| 20260904042520 | 25 | 186 | 4.8 | 12.9 | 0.00 | 0.00 | 0.00 | 60 | 1014.9 |
| 20260904042020 | 25 | 170 | 4.8 | 12.9 | 0.00 | 0.00 | 0.00 | 60 | 1014.9 |
| 20260904041518 | 25 | 188 | 6.4 | 9.7 | 0.00 | 0.00 | 0.00 | 59 | 1014.8 |
| 20260904041017 | 25 | 166 | 4.8 | 11.3 | 0.00 | 0.00 | 0.00 | 59 | 1014.7 |
| 20260904040517 | 25 | 161 | 6.4 | 9.7 | 0.00 | 0.00 | 0.00 | 58 | 1014.7 |
| 20260904040021 | 25 | 170 | 6.4 | 9.7 | 0.00 | 0.00 | 0.00 | 58 | 1014.7 |
| 20260904035518 | 25 | 188 | 3.2 | 6.4 | 0.00 | 0.00 | 0.00 | 57 | 1014.6 |
| 20260904035015 | 25 | 192 | 3.2 | 6.4 | 0.00 | 0.00 | 0.00 | 56 | 1014.5 |
| 20260904034520 | 25 | 214 | 0.0 | 6.4 | 0.00 | 0.00 | 0.00 | 56 | 1014.6 |
| 20260904034015 | 25 | 244 | 3.2 | 8.0 | 0.00 | 0.00 | 0.00 | 56 | 1014.6 |
| 20260904033518 | 25 | 257 | 4.8 | 8.0 | 0.00 | 0.00 | 0.00 | 56 | 1014.6 |
| 20260904033022 | 25 | 42 | 0.0 | 4.8 | 0.00 | 0.00 | 0.00 | 55 | 1014.6 |
| 20260904032514 | 25 | 15 | 0.0 | 4.8 | 0.00 | 0.00 | 0.00 | 55 | 1014.7 |
| 20260904032014 | 25 | 351 | 1.6 | 8.0 | 0.00 | 0.00 | 0.00 | 55 | 1014.6 |
| 20260904031514 | 25 | 172 | 3.2 | 9.7 | 0.00 | 0.00 | 0.00 | 56 | 1014.5 |
| 20260904031013 | 25 | 355 | 4.8 | 9.7 | 0.00 | 0.00 | 0.00 | 56 | 1014.7 |
| 20260904030514 | 25 | 157 | 6.4 | 9.7 | 0.00 | 0.00 | 0.00 | 56 | 1014.4 |
| 20260904030013 | 25 | 299 | 0.0 | 6.4 | 0.00 | 0.00 | 0.00 | 56 | 1014.4 |
| 20260904025512 | 25 | 192 | 3.2 | 8.0 | 0.00 | 0.00 | 0.00 | 55 | 1014.4 |
| 20260904025012 | 25 | 194 | 1.6 | 9.7 | 0.00 | 0.00 | 0.00 | 55 | 1014.4 |
| 20260904024512 | 25 | 159 | 4.8 | 11.3 | 0.00 | 0.00 | 0.00 | 55 | 1014.3 |
| 20260904024014 | 25 | 141 | 4.8 | 11.3 | 0.00 | 0.00 | 0.00 | 55 | 1014.4 |
| 20260904023512 | 25 | 136 | 6.4 | 11.3 | 0.00 | 0.00 | 0.00 | 55 | 1014.4 |
| 20260904023011 | 25 | 151 | 6.4 | 12.9 | 0.00 | 0.00 | 0.00 | 55 | 1014.3 |
| 20260904022511 | 25 | 174 | 9.7 | 12.9 | 0.00 | 0.00 | 0.00 | 55 | 1014.4 |
| 20260904022010 | 25 | 123 | 1.6 | 14.5 | 0.00 | 0.00 | 0.00 | 55 | 1014.4 |
| 20260904021515 | 25 | 132 | 8.0 | 14.5 | 0.00 | 0.00 | 0.00 | 55 | 1014.5 |
| 20260904021010 | 25 | 184 | 4.8 | 11.3 | 0.00 | 0.00 | 0.00 | 54 | 1014.4 |
| 20260904020510 | 25 | 171 | 4.8 | 8.0 | 0.00 | 0.00 | 0.00 | 54 | 1014.4 |
| 20260904020009 | 25 | 195 | 4.8 | 6.4 | 0.00 | 0.00 | 0.00 | 54 | 1014.4 |
| 20260904015509 | 25 | 318 | 0.0 | 4.8 | 0.00 | 0.00 | 0.00 | 55 | 1014.5 |
| 20260904015009 | 25 | 323 | 0.0 | 4.8 | 0.00 | 0.00 | 0.00 | 54 | 1014.5 |
| 20260904014509 | 25 | 227 | 1.6 | 4.8 | 0.00 | 0.00 | 0.00 | 54 | 1014.5 |
| 20260904014008 | 25 | 268 | 0.0 | 4.8 | 0.00 | 0.00 | 0.00 | 54 | 1014.5 |
| 20260904013509 | 25 | 269 | 0.0 | 6.4 | 0.00 | 0.00 | 0.00 | 54 | 1014.5 |
| 20260904013008 | 25 | 281 | 0.0 | 8.0 | 0.00 | 0.00 | 0.00 | 54 | 1014.5 |
| 20260904012508 | 25 | 254 | 6.4 | 8.0 | 0.00 | 0.00 | 0.00 | 54 | 1014.5 |
| 20260904012008 | 25 | 241 | 3.2 | 6.4 | 0.00 | 0.00 | 0.00 | 53 | 1014.5 |
| 20260904011508 | 25 | 155 | 0.0 | 4.8 | 0.00 | 0.00 | 0.00 | 53 | 1014.5 |
| 20260904011011 | 25 | 155 | 3.2 | 8.0 | 0.00 | 0.00 | 0.00 | 53 | 1014.5 |
| 20260904010506 | 25 | 161 | 3.2 | 9.7 | 0.00 | 0.00 | 0.00 | 53 | 1014.4 |
| 20260904010009 | 25 | 163 | 6.4 | 9.7 | 0.00 | 0.00 | 0.00 | 53 | 1014.5 |
| 20260904005506 | 25 | 198 | 0.0 | 0.0 | 0.00 | 0.00 | 0.00 | 53 | 1014.5 |
| 20260904005006 | 25 | 292 | 0.0 | 0.0 | 0.00 | 0.00 | 0.00 | 53 | 1014.5 |
| 20260904004506 | 25 | 293 | 0.0 | 0.0 | 0.00 | 0.00 | 0.00 | 53 | 1014.5 |
| 20260904004005 | 25 | 296 | 0.0 | 3.2 | 0.00 | 0.00 | 0.00 | 53 | 1014.5 |
| 20260904003505 | 25 | 296 | 0.0 | 3.2 | 0.00 | 0.00 | 0.00 | 54 | 1014.3 |
| 20260904003004 | 24 | 332 | 0.0 | 1.6 | 0.00 | 0.00 | 0.00 | 54 | 1014.4 |
| 20260904002504 | 24 | 339 | 0.0 | 3.2 | 0.00 | 0.00 | 0.00 | 55 | 1014.4 |
| 20260904002004 | 24 | 340 | 0.0 | 3.2 | 0.00 | 0.00 | 0.00 | 55 | 1014.4 |
| 20260904001503 | 24 | 342 | 0.0 | 6.4 | 0.00 | 0.00 | 0.00 | 55 | 1014.5 |
| 20260904001002 | 24 | 347 | 0.0 | 6.4 | 0.00 | 0.00 | 0.00 | 54 | 1014.5 |
| 20260904000501 | 25 | 77 | 0.0 | 0.0 | 0.00 | 0.00 | 0.00 | 53 | 1014.6 |
| 20260904000002 | 25 | 76 | 0.0 | 0.0 | 0.00 | 0.00 | 0.00 | 52 | 1014.5 |
| 20260903235602 | 25 | 76 | 0.0 | 0.0 | 0.00 | 0.00 | 0.00 | 52 | 1014.5 |
| 20260903235059 | 25 | 88 | 0.0 | 6.4 | 0.00 | 0.00 | 0.00 | 51 | 1014.6 |
| 20260903234559 | 25 | 102 | 0.0 | 6.4 | 0.00 | 0.00 | 0.00 | 50 | 1014.6 |
| 20260903234059 | 25 | 104 | 1.6 | 6.4 | 0.00 | 0.00 | 0.00 | 49 | 1014.5 |
| 20260903233557 | 26 | 116 | 1.6 | 6.4 | 0.00 | 0.00 | 0.00 | 48 | 1014.5 |
| 20260903233102 | 26 | 105 | 3.2 | 6.4 | 0.00 | 0.00 | 0.00 | 48 | 1014.6 |
| 20260903232557 | 25 | 71 | 3.2 | 6.4 | 0.00 | 0.00 | 0.00 | 48 | 1014.5 |
| 20260903232058 | 25 | 121 | 0.0 | 4.8 | 0.00 | 0.00 | 0.00 | 48 | 1014.5 |
| 20260903231557 | 25 | 121 | 0.0 | 4.8 | 0.00 | 0.00 | 0.00 | 48 | 1014.6 |
| 20260903231056 | 25 | 123 | 0.0 | 4.8 | 0.00 | 0.00 | 0.00 | 48 | 1014.6 |
| 20260903230555 | 25 | 77 | 0.0 | 4.8 | 0.00 | 0.00 | 0.00 | 48 | 1014.6 |
| 20260903225555 | 25 | 101 | 0.0 | 3.2 | 0.00 | 0.00 | 0.00 | 46 | 1014.6 |
| 20260903225054 | 25 | 98 | 0.0 | 0.0 | 0.00 | 0.00 | 0.00 | 46 | 1014.7 |
| 20260903224556 | 25 | 97 | 0.0 | 0.0 | 0.00 | 0.00 | 0.00 | 47 | 1014.7 |
| 20260903224054 | 25 | 97 | 0.0 | 1.6 | 0.00 | 0.00 | 0.00 | 47 | 1014.6 |
| 20260903223553 | 25 | 72 | 0.0 | 1.6 | 0.00 | 0.00 | 0.00 | 48 | 1014.6 |
| 20260903223105 | 25 | 73 | 0.0 | 4.8 | 0.00 | 0.00 | 0.00 | 47 | 1014.7 |
| 20260903222550 | 26 | 72 | 0.0 | 4.8 | 0.00 | 0.00 | 0.00 | 46 | 1014.6 |
| 20260903222051 | 26 | 63 | 0.0 | 4.8 | 0.00 | 0.00 | 0.00 | 46 | 1014.7 |
| 20260903221550 | 26 | 49 | 1.6 | 4.8 | 0.00 | 0.00 | 0.00 | 45 | 1014.8 |
| 20260903221050 | 26 | 46 | 0.0 | 6.4 | 0.00 | 0.00 | 0.00 | 46 | 1014.8 |
| 20260903220550 | 26 | 42 | 0.0 | 8.0 | 0.00 | 0.00 | 0.00 | 46 | 1014.7 |